ETV Charleston SC US WEATHERSTEM current weather conditions

sailwx.info

Wind from 090 at 1 knots gusting 5

Air temperature 6.4° C
Dewpoint 2.5° C

Last reported at 2020-Jan-18 10:50 UTC.
Time now 2020-Jan-18 12:10 UTC

Location: N 32°48' W 080°01'.
View on Google Maps.

See reports from other nearby stations

  
Tides and Currents Weather Stations Pressure Air Temp Water Temp Dewpoint Dewpoint Depression Visibility Wind Speed Wind Dir Waves Ship Positions
date/time (UTC)wind fromknots sea level pressurealtimeterstation pressurevisibilityair tempwater tempwave heightnotes
2020-Jan-18 10:50 090 1 gusting 5 6.4
2020-Jan-18 10:40 046 0 gusting 5 6.3
2020-Jan-18 10:30 090 1 gusting 5 6.3
2020-Jan-18 10:20 084 1 gusting 3 6.3
2020-Jan-18 10:10 058 0 gusting 4 6.3
2020-Jan-18 10:00 036 3 gusting 3 6.4
2020-Jan-18 09:50 109 5 gusting 6 6.4
2020-Jan-18 09:40 026 0 gusting 5 6.4
2020-Jan-18 09:30 051 0 gusting 5 6.6
2020-Jan-18 09:20 040 0 gusting 6 6.4
2020-Jan-18 09:10 026 1 gusting 5 6.3
2020-Jan-18 09:00 017 3 gusting 9 6.3
2020-Jan-18 08:50 088 1 gusting 6 6.3
2020-Jan-18 08:40 036 1 gusting 6 6.2
2020-Jan-18 08:30 097 3 gusting 6 6.2
2020-Jan-18 08:20 005 3 gusting 5 6.2
2020-Jan-18 08:10 6.2
2020-Jan-18 08:00 058 1 gusting 3 6.2
2020-Jan-18 07:50 085 0 gusting 4 6.2
2020-Jan-18 07:40 050 6 gusting 7 6.2
2020-Jan-18 07:30 059 1 gusting 6 6.1
2020-Jan-18 07:20 091 1 gusting 6 5.9
2020-Jan-18 07:10 079 1 gusting 5 5.9
2020-Jan-18 07:00 047 1 gusting 5 5.9
2020-Jan-18 06:50 107 1 gusting 4 5.9
2020-Jan-18 06:40 093 0 gusting 3 5.9
2020-Jan-18 06:30 104 1 gusting 2 5.9
2020-Jan-18 06:20 093 0 gusting 4 5.9
2020-Jan-18 06:10 073 0 gusting 5 5.9
2020-Jan-18 06:00 070 0 gusting 3 6.0
2020-Jan-18 05:50 088 0 gusting 6 6.1
2020-Jan-18 05:40 067 2 gusting 6 6.2
2020-Jan-18 05:30 030 0 gusting 5 6.2
2020-Jan-18 05:20 051 2 gusting 5 6.3
2020-Jan-18 05:10 073 1 gusting 2 6.2
2020-Jan-18 05:00 061 2 gusting 5 6.2
2020-Jan-18 04:50 090 1 gusting 3 6.2
2020-Jan-18 04:40 058 0 gusting 2 6.2
2020-Jan-18 04:30 088 0 gusting 3 6.3
2020-Jan-18 04:10 031 1 gusting 3 6.4
2020-Jan-18 04:00 065 0 gusting 6 6.6
2020-Jan-18 03:50 109 0 gusting 5 6.6
2020-Jan-18 03:40 049 1 gusting 3 6.6
2020-Jan-18 03:30 101 0 gusting 4 6.8
2020-Jan-18 03:20 074 1 gusting 5 6.8
2020-Jan-18 03:10 039 0 gusting 3 6.8
2020-Jan-18 03:00 127 1 gusting 4 6.9
2020-Jan-18 02:50 6.9
2020-Jan-18 02:40 077 0 gusting 3 6.9
2020-Jan-18 02:30 031 0 gusting 1 7.1
2020-Jan-18 02:20 078 0 gusting 3 7.2
2020-Jan-18 02:10 067 1 gusting 4 7.3
2020-Jan-18 02:00 036 1 gusting 3 7.4
2020-Jan-18 01:50 059 1 gusting 3 7.6
2020-Jan-18 01:40 115 1 gusting 3 7.7
2020-Jan-18 01:30 7.6
2020-Jan-18 01:20 7.6
2020-Jan-18 01:10 037 0 gusting 2 7.6
2020-Jan-18 01:00 058 3 gusting 6 7.7
2020-Jan-18 00:50 052 0 gusting 6 7.7
2020-Jan-18 00:40 111 1 gusting 5 7.8
2020-Jan-18 00:30 040 0 gusting 3 7.8
2020-Jan-18 00:20 063 1 gusting 5 7.8
2020-Jan-18 00:10 045 0 gusting 2 7.9
2020-Jan-18 00:00 8.1
2020-Jan-17 23:50 096 1 gusting 5 8.1
2020-Jan-17 23:40 8.2
2020-Jan-17 23:30 8.3
2020-Jan-17 23:20 063 1 gusting 4 8.4
2020-Jan-17 23:10 8.5
2020-Jan-17 23:00 297 0 gusting 5 8.7
2020-Jan-17 22:50 194 2 gusting 6 8.7
2020-Jan-17 22:40 187 2 gusting 6 9.0
2020-Jan-17 22:30 328 1 gusting 6 9.3
2020-Jan-17 22:20 153 0 gusting 3 9.4
2020-Jan-17 22:10 9.6
2020-Jan-17 22:00 9.8
2020-Jan-17 21:50 325 0 gusting 4 10.1
2020-Jan-17 21:40 146 0 gusting 4 10.4
2020-Jan-17 21:30 116 0 gusting 9 10.6
2020-Jan-17 21:20 184 2 gusting 4 10.7
2020-Jan-17 21:10 186 0 gusting 5 10.8
2020-Jan-17 21:00 200 1 gusting 3 11.0
2020-Jan-17 20:50 148 0 gusting 3 11.1
2020-Jan-17 20:40 038 1 gusting 4 11.2
2020-Jan-17 20:30 186 3 gusting 6 11.6
2020-Jan-17 20:20 172 2 gusting 6 11.6
2020-Jan-17 20:10 181 3 gusting 4 11.8
2020-Jan-17 20:00 205 0 gusting 5 11.5
2020-Jan-17 19:50 038 1 gusting 6 11.9
2020-Jan-17 19:40 12.2
2020-Jan-17 19:30 070 2 gusting 4 12.3
2020-Jan-17 19:20 355 1 gusting 6 12.0
2020-Jan-17 19:10 089 0 gusting 6 12.1
2020-Jan-17 19:00 085 1 gusting 5 11.9
2020-Jan-17 18:50 099 2 gusting 5 12.0
2020-Jan-17 18:40 082 3 gusting 5 11.9
2020-Jan-17 18:30 131 1 gusting 7 11.8
2020-Jan-17 18:20 005 1 gusting 6 12.1
2020-Jan-17 18:10 092 1 gusting 6 11.6
2020-Jan-17 18:00 015 0 gusting 4 11.8
2020-Jan-17 17:50 143 3 gusting 5 11.6
2020-Jan-17 17:40 034 0 gusting 3 11.7
2020-Jan-17 17:30 087 0 gusting 6 11.4
2020-Jan-17 17:20 069 0 gusting 7 10.9
2020-Jan-17 17:10 074 0 gusting 7 11.1
2020-Jan-17 17:00 032 0 gusting 4 10.8
2020-Jan-17 16:50 039 1 gusting 6 10.8
2020-Jan-17 16:40 052 1 gusting 6 10.9
2020-Jan-17 16:30 071 1 gusting 7 10.3
2020-Jan-17 16:20 096 1 gusting 6 10.3
2020-Jan-17 16:10 091 1 gusting 9 10.2
2020-Jan-17 16:00 072 1 gusting 13 9.8
2020-Jan-17 15:50 360 4 gusting 8 9.9
2020-Jan-17 15:40 103 2 gusting 9 9.7
2020-Jan-17 15:30 146 5 gusting 9 9.8
2020-Jan-17 15:20 062 0 gusting 7 9.4
2020-Jan-17 15:10 080 3 gusting 7 9.2
2020-Jan-17 14:50 059 0 gusting 11 9.2
2020-Jan-17 14:30 051 6 gusting 10 9.0
2020-Jan-17 14:20 168 1 gusting 9 8.9
2020-Jan-17 14:00 360 2 gusting 8 8.8
2020-Jan-17 13:50 042 3 gusting 11 8.7
2020-Jan-17 13:30 028 1 gusting 7 8.8
2020-Jan-17 13:10 046 1 gusting 7 8.8
2020-Jan-17 13:00 072 2 gusting 10 8.9
2020-Jan-17 12:50 062 2 gusting 11 9.0
2020-Jan-17 12:30 042 0 gusting 6 9.1
2020-Jan-17 12:20 075 1 gusting 5 9.3
2020-Jan-17 12:10 056 0 gusting 6 9.4
2020-Jan-17 12:00 048 2 gusting 7 9.5
2020-Jan-17 11:50 057 2 gusting 7 9.8
2020-Jan-17 11:30 095 2 gusting 4 9.9
2020-Jan-17 11:20 061 3 gusting 6 10.1
2020-Jan-17 11:10 10.3
2020-Jan-17 11:00 033 0 gusting 6 10.5
2020-Jan-17 10:50 034 1 gusting 7 10.7
2020-Jan-17 10:30 022 3 gusting 9 11.1
2020-Jan-17 10:20 055 3 gusting 8 11.3
2020-Jan-17 10:10 053 3 gusting 13 11.5
2020-Jan-17 10:00 057 2 gusting 6 11.7
2020-Jan-17 09:50 053 1 gusting 10 11.9
2020-Jan-17 09:30 044 1 gusting 5 12.3
2020-Jan-17 09:20 065 2 gusting 8 12.4
2020-Jan-17 09:10 009 6 gusting 7 12.6
2020-Jan-17 09:00 060 2 gusting 6 12.7
2020-Jan-17 08:50 053 2 gusting 5 12.8
2020-Jan-17 08:30 038 1 gusting 5 12.9
2020-Jan-17 08:20 042 1 gusting 4 12.9
2020-Jan-17 08:10 083 0 gusting 6 12.9
2020-Jan-17 08:00 070 0 gusting 3 12.7
2020-Jan-17 07:50 12.6
2020-Jan-17 07:30 022 0 gusting 4 12.4
2020-Jan-17 07:20 075 1 gusting 6 12.5
2020-Jan-17 07:10 065 1 gusting 6 12.6
2020-Jan-17 07:00 047 0 gusting 5 12.7
2020-Jan-17 06:50 337 2 gusting 5 12.9
2020-Jan-17 06:30 027 2 gusting 5 13.1
2020-Jan-17 06:20 023 0 gusting 3 13.2
2020-Jan-17 06:10 036 0 gusting 4 13.2
2020-Jan-17 06:00 017 3 gusting 4 13.1
2020-Jan-17 05:50 042 0 gusting 5 13.2
2020-Jan-17 05:30 014 0 gusting 4 13.5
2020-Jan-17 05:20 036 0 gusting 5 13.7
2020-Jan-17 05:10 341 0 gusting 4 13.8
2020-Jan-17 04:50 020 0 gusting 5 13.9
2020-Jan-17 04:30 355 1 gusting 4 14.3
2020-Jan-17 04:20 316 0 gusting 4 14.3
2020-Jan-17 04:10 056 0 gusting 3 14.6
2020-Jan-17 04:00 019 0 gusting 6 14.8
2020-Jan-17 03:50 055 0 gusting 2 14.8
2020-Jan-17 03:30 042 0 gusting 4 15.5
2020-Jan-17 03:20 046 1 gusting 4 15.7
2020-Jan-17 03:10 011 0 gusting 6 15.9
2020-Jan-17 03:00 034 1 gusting 6 16.1
2020-Jan-17 02:50 016 8 gusting 8 16.4
2020-Jan-17 02:30 039 1 gusting 10 16.8
2020-Jan-17 02:20 038 0 gusting 7 16.9
2020-Jan-17 02:10 17.2
2020-Jan-17 02:00 026 1 gusting 5 17.5
2020-Jan-17 01:50 054 2 gusting 8 17.8
2020-Jan-17 01:30 029 1 gusting 11 18.0
2020-Jan-17 01:20 077 1 gusting 6 18.1
2020-Jan-17 01:10 037 3 gusting 6 18.4
2020-Jan-17 01:00 034 3 gusting 8 18.6
2020-Jan-17 00:50 083 3 gusting 6 18.8
2020-Jan-17 00:30 028 4 gusting 7 19.3
2020-Jan-17 00:20 038 4 gusting 11 19.8
2020-Jan-17 00:00 037 3 gusting 11 20.3
2020-Jan-16 23:50 033 1 gusting 6 20.5
2020-Jan-16 23:30 044 1 gusting 7 21.2
2020-Jan-16 23:20 046 0 gusting 8 21.3
2020-Jan-16 23:10 024 2 gusting 6 21.4
2020-Jan-16 23:00 019 1 gusting 5 21.6
2020-Jan-16 22:50 029 0 gusting 5 21.9
2020-Jan-16 22:30 058 1 gusting 5 22.4
2020-Jan-16 22:20 005 1 gusting 4 22.7
2020-Jan-16 22:00 063 2 gusting 6 23.1
2020-Jan-16 21:50 044 3 gusting 11 23.1
2020-Jan-16 21:30 051 2 gusting 8 23.7
2020-Jan-16 21:20 032 1 gusting 7 23.8
2020-Jan-16 21:00 043 2 gusting 6 23.8
2020-Jan-16 20:30 034 0 gusting 8 23.1
2020-Jan-16 20:20 023 1 gusting 6 22.9
2020-Jan-16 20:10 045 1 gusting 5 23.3
2020-Jan-16 20:00 026 2 gusting 9 23.8
2020-Jan-16 19:50 005 0 gusting 11 23.6
2020-Jan-16 19:40 044 2 gusting 9 23.9
2020-Jan-16 19:30 005 1 gusting 5 23.7
2020-Jan-16 19:20 23.6
2020-Jan-16 19:00 052 2 gusting 10 23.7
2020-Jan-16 18:50 088 4 gusting 7 24.2
2020-Jan-16 18:40 028 3 gusting 5 24.0
2020-Jan-16 18:30 040 1 gusting 9 24.1
2020-Jan-16 18:20 349 2 gusting 6 24.2
2020-Jan-16 18:00 021 1 gusting 8 24.1
2020-Jan-16 17:50 010 1 gusting 3 24.0
2020-Jan-16 17:40 047 1 gusting 3 24.1
2020-Jan-16 17:30 360 2 gusting 5 23.6
2020-Jan-16 17:20 339 0 gusting 8 23.5
2020-Jan-16 17:00 317 2 gusting 6 23.9
2020-Jan-16 16:50 017 1 gusting 4 23.2
2020-Jan-16 16:40 309 2 gusting 2 22.9
2020-Jan-16 16:30 038 1 gusting 4 22.6
2020-Jan-16 16:20 311 0 gusting 7 22.7
2020-Jan-16 16:00 042 1 gusting 3 22.1
2020-Jan-16 15:50 349 0 gusting 5 21.4
2020-Jan-16 15:40 21.2
2020-Jan-16 15:30 355 0 gusting 3 20.6
2020-Jan-16 15:20 20.2
2020-Jan-16 15:00 19.7
2020-Jan-16 14:50 230 0 gusting 6 19.4
2020-Jan-16 14:40 279 0 gusting 5 19.3
2020-Jan-16 14:30 323 0 gusting 6 18.9
2020-Jan-16 14:20 194 0 gusting 4 18.8
2020-Jan-16 14:00 182 0 gusting 3 18.5
2020-Jan-16 13:50 18.4
2020-Jan-16 13:40 215 0 gusting 4 18.3
2020-Jan-16 13:30 18.3
2020-Jan-16 13:20 18.2
2020-Jan-16 13:00 18.1
2020-Jan-16 12:50 18.1
2020-Jan-16 12:40 18.1
2020-Jan-16 12:30 18.1
2020-Jan-16 12:20 338 0 gusting 0 18.1
2020-Jan-16 12:00 18.0